Flag for U.S.A. Weather past 2 weeks in Fremont, California, U.S.A.

Now
56 °F

Sunny.


Feels Like: 55 °F
Forecast: 41 / 67 °F
Wind: 5 mph from North

Location: Moffett Field

Current Time: Jan 25, 2015 at 12:54:47 PM

Latest Report: Jan 25, 2015 at 11:56 AM


Visibility: 10 mi

Pressure: 30.12 "Hg

Humidity: 60%

Dew point: 42 °F

Location of FremontLocation

Historic Weather in Fremont — Graph

°F

Fremont temperature yesterday

Maximum temperature yesterday: 69 °F (at 1:56 PM)
Minimum temperature yesterday: 48 °F (at 4:56 AM)
Average temperature yesterday: 59 °F

Past Weeks' High & Low Weather Summary

 TemperatureHumidityPressure
High69 °F (Jan 24, 1:56 PM)100% (Jan 13, 2:59 AM)30.38 "Hg (Jan 13, 2:59 AM)
Low38 °F (Jan 14, 6:56 AM)26% (Jan 24, 3:56 PM)29.96 "Hg (Jan 10, 1:56 PM)
Average52 °F76%30.22 "Hg
* Reported Jan 10 11:56 AM — Jan 25 11:56 AM, Fremont, Weather by CustomWeather, © 2014

Note: Actual official high and low records may vary slightly from our data, if they occured in-between our weather recording intervals... More about our weather records

Advertising

Fremont weather history for previous 24 hours

 ConditionsComfort  
Time TempWeatherWind HumidityBarometerVisibility
11:56 AM
Jan 25
56 °FSunny.5 mph60%30.12 "Hg10 mi
10:56 AM53 °FSunny.7 mph66%30.15 "Hg10 mi
9:56 AM51 °FSunny.5 mph74%30.16 "Hg10 mi
8:56 AM49 °FSunny.3 mph80%30.15 "Hg10 mi
7:56 AM44 °FSunny.5 mph85%30.16 "Hg8 mi
6:56 AM45 °FClear.5 mph86%30.16 "Hg10 mi
5:56 AM45 °FClear.5 mph82%30.14 "Hg10 mi
4:56 AM46 °FClear.3 mph79%30.14 "Hg10 mi
3:56 AM46 °FClear.3 mph79%30.14 "Hg10 mi
2:56 AM47 °FClear.No wind80%30.14 "Hg10 mi
1:56 AM49 °FClear.No wind80%30.14 "Hg10 mi
12:56 AM51 °FClear.3 mph77%30.14 "Hg10 mi
11:56 PM
Jan 24
50 °FClear.No wind80%30.14 "Hg10 mi
10:56 PM52 °FClear.No wind75%30.15 "Hg10 mi
9:56 PM54 °FClear.3 mph72%30.14 "Hg10 mi
8:56 PM56 °FClear.5 mph70%30.13 "Hg10 mi
7:56 PM59 °FClear.No wind58%30.11 "Hg10 mi
6:56 PM62 °FClear.No wind37%30.11 "Hg10 mi
5:56 PM66 °FClear.6 mph29%30.10 "Hg10 mi
4:56 PM67 °FSunny.3 mph32%30.10 "Hg10 mi
3:56 PM69 °FSunny.12 mph26%30.12 "Hg10 mi
2:56 PM69 °FSunny.5 mph32%30.13 "Hg10 mi
1:56 PM69 °FSunny.6 mph33%30.14 "Hg10 mi
12:56 PM68 °FSunny.7 mph32%30.16 "Hg10 mi
Weather by CustomWeather, © 2014

See weather overviewHow to use our weather pages